[[{"header":{"parameterUnit":"m.s-1","parameterCategory":1,"la1":30.2991,"la2":30.254,"lo1":-89.0895,"lo2":-89.0444,"dy":0.0017,"dx":0.0017,"nx":28,"ny":28,"refTime":"2025-03-18T03:00:00:Z","depth":0,"parameterNumber":2,"parameterNumberName":"U-component_of_WINDS"},"data":[0,0,0,0,0,0,0,0,0,0,0,0,0,0,0,0,0,0,0,0,0,0,0,0,0,0,0,0,0,0,0,0,0,0,0,0,0,0,0,0,0,0,0,0,0,0,0,0,0,0,0,0,0,0,0,0,0,0,0.8162,0.8163,0,0.8244,0.8245,0.8246,0.8225,0.8224,0.8222,0.8221,0.8305,0.8309,0.8313,0,0,0,0,0,0,0,0,0,0,0,0,0,0.7991,0.7994,0.8162,0.8163,0.8164,0.8244,0.8245,0.8246,0.8226,0.8224,0.8222,0.822,0.8304,0.8308,0.8313,0,0,0,0,0,0,0,0,0,0,0,0,0,0.8068,0.7995,0.8162,0.8164,0.8165,0.8243,0.8245,0.8246,0.8226,0.8224,0.8221,0.8219,0.8303,0.8308,0.8314,0.8396,0,0,0.8331,0.8333,0,0,0,0,0,0,0,0,0.8064,0.8074,0.8163,0.8164,0.8165,0.8222,0.8215,0.8296,0.8227,0.8203,0.8221,0.8218,0.828,0.8287,0.8307,0.84,0.8403,0.8331,0.8335,0.8337,0.8339,0,0,0,0,0,0,0,0.8058,0.8071,0.8195,0.8164,0.8165,0.8161,0.8169,0.8231,0.8254,0.8205,0.8203,0.8213,0.828,0.8302,0.8309,0.8405,0.8331,0.8336,0.8339,0.8342,0.8569,0.8572,0,0,0,0,0,0,0.8052,0.8067,0.8192,0.8197,0.8107,0.8166,0.8175,0.8206,0.8253,0.8258,0.8215,0.8212,0.8294,0.8303,0.8312,0.8412,0.8337,0.8342,0.8345,0.8567,0.857,0.8573,0,0,0,0,0,0,0.8048,0.8063,0.8189,0.8132,0.8147,0.8172,0.8206,0.8209,0.8231,0.8261,0.8265,0.8234,0.8292,0.8304,0.8375,0.8414,0.8345,0.835,0.8563,0.8568,0.8571,0.8612,0,0,0,0,0,0,0.8043,0.8062,0.8093,0.8132,0.815,0.825,0.8209,0.8212,0.8241,0.8237,0.8279,0.8284,0.8291,0.8367,0.8381,0.8421,0.8354,0.856,0.8565,0.857,0.8607,0.8617,0.8625,0,0,0,0,0,0.8037,0.8101,0.8095,0.811,0.819,0.8252,0.8263,0.8269,0.8244,0.8276,0.8295,0.8283,0.8408,0.8374,0.839,0.8432,0.8558,0.8564,0.857,0.8603,0.8615,0.8625,0,0,0,0,0,0,0.8067,0.8107,0.81,0.8178,0.8212,0.8249,0.8289,0.8282,0.8323,0.8319,0.8326,0.8335,0.8408,0.8427,0.8389,0.8515,0.8479,0.8489,0.8499,0.8511,0.8519,0.8513,0.8359,0,0,0,0,0,0.8082,0.8129,0.8162,0.8228,0.8245,0.8264,0.8292,0.8294,0.833,0.8344,0.8368,0.8403,0.8451,0.8482,0.8527,0.861,0.8619,0.8647,0.8656,0.8663,0.8671,0.8717,0.8729,0.8593,0.8593,0.8592,0,0,0.8115,0.8142,0.8172,0.8235,0.8261,0.831,0.8276,0.833,0.8367,0.8352,0.842,0.844,0.848,0.8557,0.8592,0.8575,0.8711,0.8671,0.8676,0.868,0.8724,0.8737,0.8748,0.8597,0.8596,0.8595,0,0,0.8199,0.8225,0.8283,0.831,0.8351,0.8363,0.8377,0.8415,0.8427,0.8496,0.8486,0.853,0.8612,0.8641,0.8666,0.8762,0.8753,0.8777,0.8824,0.8868,0.8879,0.8888,0.8923,0.8935,0.8785,0.8785,0.8785,0,0.8235,0.8308,0.8314,0.8368,0.8396,0.8386,0.8445,0.8471,0.8524,0.8544,0.8525,0.8627,0.8653,0.8737,0.8761,0.8781,0.8798,0.8772,0.8877,0.8887,0.8896,0.8929,0.8942,0.8788,0.8787,0.8787,0.8787,0,0.835,0.8401,0.8443,0.8495,0.8528,0.8584,0.8599,0.8632,0.8632,0.8646,0.8717,0.8748,0.8799,0.8819,0.882,0.8904,0.8892,0.8875,0.8839,0.8911,0.8942,0.8955,0.8792,0.8791,0.879,0.8789,0,0,0.8455,0.8509,0.8524,0.8548,0.8592,0.8632,0.8688,0.8738,0.8766,0.8804,0.8852,0.8921,0.8905,0.8934,0.8938,0.8977,0.9052,0.8954,0.8956,0.8971,0.9147,0.9159,0.9174,0.9045,0.9048,0.905,0.9143,0,0.8543,0.8642,0.8649,0.8739,0.8786,0.8777,0.8826,0.8859,0.8874,0.8917,0.8934,0.8984,0.8959,0.8976,0.9014,0.9034,0.9087,0.9028,0.909,0.9093,0.908,0.919,0.9204,0.9291,0.9156,0.9158,0.9159,0,0.866,0.87,0.8794,0.8832,0.8852,0.8896,0.8943,0.8984,0.9021,0.903,0.9062,0.9061,0.9119,0.9082,0.9163,0.9123,0.9149,0.9163,0.9166,0.9172,0.913,0.9199,0.9318,0.9331,0.9178,0.9177,0.9175,0,0.8727,0.8805,0.8871,0.8892,0.8938,0.8969,0.8989,0.9024,0.9054,0.9095,0.9115,0.9162,0.9188,0.9226,0.9237,0.9209,0.9318,0.9282,0.9327,0.9327,0.935,0.9349,0.9475,0.9368,0.9367,0.9367,0.9367,0,0.8825,0.8883,0.8902,0.8943,0.9008,0.9016,0.908,0.9099,0.913,0.9175,0.917,0.9213,0.9225,0.927,0.928,0.9346,0.9358,0.9367,0.9368,0.9367,0.9366,0.9384,0.9378,0.9371,0.937,0.9369,0.9369,0,0.8911,0.8926,0.8998,0.9035,0.9046,0.9092,0.9125,0.9164,0.9179,0.9236,0.925,0.9273,0.9326,0.9341,0.9404,0.9411,0.9488,0.9485,0.9475,0.9475,0.952,0.9516,0.9663,0.9683,0.9562,0.9563,0.9564,0,0.8972,0.9016,0.9059,0.9088,0.911,0.9157,0.9188,0.9198,0.923,0.9276,0.931,0.9362,0.9404,0.9488,0.9511,0.956,0.9557,0.9606,0.9565,0.9562,0.9558,0.9555,0.956,0.9613,0.9615,0.9616,0.9616,0,0.908,0.9085,0.9129,0.9176,0.9212,0.9249,0.9285,0.931,0.9325,0.9361,0.9415,0.9447,0.9512,0.9563,0.9613,0.9635,0.9629,0.9629,0.9642,0.9641,0.9634,0.9639,0.9496,0.9626,0.9625,0.9624,0.9624,0.9623,0.9155,0.9194,0.923,0.9279,0.9307,0.9341,0.938,0.94,0.9444,0.9497,0.9501,0.9559,0.9596,0.9661,0.9686,0.9732,0.9718,0.9737,0.9741,0.9746,0.975,0.9627,0.9741,0.974,0.974,0.974,0.974,0,0.9262,0.9285,0.933,0.938,0.9419,0.941,0.9449,0.9482,0.9533,0.9568,0.9609,0.9671,0.9721,0.9748,0.9799,0.983,0.9829,0.9843,0.9841,0.9846,0.9759,0.9743,0.9844,0.9844,0.9843,0.9843,0.9843,0.9843,0.9323,0.9388,0.9398,0.9478,0.9501,0.9557,0.958,0.9612,0.9639,0.9708,0.975,0.9767,0.9799,0.9852,0.9898,0.9904,0.9923,0.9939,0.9944,0.9863,0.9852,0.9842,0.9827,0.9943,0.9943,1.0027,1.0028,1.0029]},{"header":{"parameterUnit":"m.s-1","parameterCategory":1,"la1":30.2991,"la2":30.254,"lo1":-89.0895,"lo2":-89.0444,"dy":0.0017,"dx":0.0017,"nx":28,"ny":28,"refTime":"2025-03-18T03:00:00:Z","depth":0,"parameterNumber":3,"parameterNumberName":"V-component_of_WINDS"},"data":[0,0,0,0,0,0,0,0,0,0,0,0,0,0,0,0,0,0,0,0,0,0,0,0,0,0,0,0,0,0,0,0,0,0,0,0,0,0,0,0,0,0,0,0,0,0,0,0,0,0,0,0,0,0,0,0,0,0,-1.4893,-1.4894,0,-1.4994,-1.4996,-1.4997,-1.5041,-1.5041,-1.5041,-1.504,-1.5143,-1.5146,-1.5149,0,0,0,0,0,0,0,0,0,0,0,0,0,-1.4737,-1.4739,-1.4893,-1.4894,-1.4895,-1.4994,-1.4996,-1.4997,-1.5041,-1.5041,-1.504,-1.504,-1.5142,-1.5146,-1.5149,0,0,0,0,0,0,0,0,0,0,0,0,0,-1.4818,-1.474,-1.4893,-1.4929,-1.4933,-1.4994,-1.4996,-1.4997,-1.5041,-1.5041,-1.504,-1.504,-1.5141,-1.5146,-1.515,-1.5181,0,0,-1.5163,-1.5165,0,0,0,0,0,0,0,0,-1.4813,-1.4824,-1.4923,-1.4927,-1.4932,-1.5005,-1.4978,-1.5059,-1.5041,-1.5,-1.504,-1.504,-1.5097,-1.5105,-1.5125,-1.5186,-1.519,-1.5163,-1.5166,-1.5168,-1.5169,0,0,0,0,0,0,0,-1.4807,-1.4819,-1.4933,-1.4924,-1.493,-1.494,-1.4952,-1.4994,-1.5049,-1.5004,-1.5007,-1.5019,-1.51,-1.5121,-1.5128,-1.5192,-1.5163,-1.5167,-1.517,-1.5172,-1.5285,-1.5285,0,0,0,0,0,0,-1.4796,-1.4814,-1.493,-1.4936,-1.4871,-1.4943,-1.4956,-1.4981,-1.5048,-1.5058,-1.5019,-1.502,-1.5113,-1.5123,-1.5131,-1.5173,-1.5168,-1.5172,-1.5174,-1.5285,-1.5285,-1.5286,0,0,0,0,0,0,-1.4792,-1.4806,-1.4926,-1.4876,-1.4892,-1.4946,-1.4975,-1.4984,-1.5004,-1.506,-1.507,-1.503,-1.5113,-1.5125,-1.5169,-1.5177,-1.5174,-1.5178,-1.5284,-1.5285,-1.5285,-1.5256,0,0,0,0,0,0,-1.4788,-1.4804,-1.4817,-1.4876,-1.4895,-1.4961,-1.4975,-1.4986,-1.5012,-1.5015,-1.5073,-1.5082,-1.5114,-1.5162,-1.5173,-1.5183,-1.5181,-1.5284,-1.5284,-1.5285,-1.5257,-1.5256,-1.5255,0,0,0,0,0,-1.4782,-1.4804,-1.4817,-1.4831,-1.4912,-1.4962,-1.4972,-1.5009,-1.5012,-1.5025,-1.5061,-1.508,-1.5175,-1.5166,-1.5179,-1.519,-1.5283,-1.5284,-1.5285,-1.5257,-1.5256,-1.5255,0,0,0,0,0,0,-1.4744,-1.4813,-1.4828,-1.487,-1.491,-1.4969,-1.4987,-1.5007,-1.5046,-1.5047,-1.5091,-1.5103,-1.5143,-1.5171,-1.5161,-1.5225,-1.5231,-1.5234,-1.5205,-1.5204,-1.5204,-1.5196,-1.5185,0,0,0,0,0,-1.474,-1.4775,-1.4834,-1.4865,-1.4884,-1.4932,-1.4955,-1.498,-1.5023,-1.504,-1.5079,-1.5119,-1.5158,-1.5183,-1.5222,-1.5261,-1.5275,-1.5276,-1.5275,-1.5274,-1.5276,-1.53,-1.5301,-1.5289,-1.5289,-1.5289,0,0,-1.4733,-1.4775,-1.4795,-1.4859,-1.4892,-1.4928,-1.4946,-1.4982,-1.5009,-1.5045,-1.5089,-1.5119,-1.5167,-1.5209,-1.5229,-1.5234,-1.5283,-1.5275,-1.5274,-1.5277,-1.5301,-1.5302,-1.5303,-1.5289,-1.5289,-1.5289,0,0,-1.4739,-1.4774,-1.4805,-1.4838,-1.4889,-1.4921,-1.4928,-1.4985,-1.5006,-1.5051,-1.5079,-1.5112,-1.5177,-1.5211,-1.5237,-1.5256,-1.5275,-1.5267,-1.5263,-1.5285,-1.5286,-1.5287,-1.5294,-1.5296,-1.5269,-1.5269,-1.5269,0,-1.4724,-1.4779,-1.4818,-1.4853,-1.488,-1.4915,-1.4947,-1.4977,-1.5038,-1.5056,-1.506,-1.5145,-1.5179,-1.523,-1.5235,-1.5254,-1.5264,-1.5261,-1.5283,-1.5284,-1.5286,-1.5293,-1.5296,-1.5268,-1.5268,-1.5268,-1.5269,0,-1.4758,-1.4795,-1.4814,-1.4872,-1.4902,-1.4934,-1.4979,-1.5004,-1.5026,-1.5057,-1.5103,-1.5146,-1.5194,-1.5208,-1.523,-1.5262,-1.5263,-1.5275,-1.5281,-1.5285,-1.5293,-1.5296,-1.5266,-1.5267,-1.5267,-1.5267,0,0,-1.4742,-1.4822,-1.4828,-1.4855,-1.4915,-1.4944,-1.4979,-1.5027,-1.5048,-1.5089,-1.5119,-1.5175,-1.5186,-1.5215,-1.5241,-1.5261,-1.5274,-1.527,-1.5272,-1.5269,-1.5312,-1.5303,-1.5305,-1.5287,-1.5288,-1.5288,-1.5308,0,-1.4755,-1.4819,-1.4856,-1.4905,-1.494,-1.4974,-1.5005,-1.5044,-1.5074,-1.5109,-1.5142,-1.5181,-1.5193,-1.521,-1.5231,-1.5267,-1.5283,-1.5267,-1.5316,-1.5317,-1.5302,-1.5309,-1.53,-1.5316,-1.5311,-1.5311,-1.5312,0,-1.478,-1.4821,-1.4873,-1.4929,-1.4945,-1.4972,-1.5019,-1.5052,-1.5097,-1.5118,-1.5151,-1.5177,-1.5215,-1.5219,-1.5273,-1.5261,-1.5283,-1.5304,-1.5305,-1.5311,-1.5314,-1.5315,-1.5322,-1.5325,-1.5317,-1.5316,-1.5316,0,-1.4763,-1.4831,-1.4872,-1.4894,-1.496,-1.4978,-1.5007,-1.5052,-1.5079,-1.512,-1.5138,-1.5183,-1.5207,-1.5241,-1.5279,-1.5279,-1.5329,-1.5336,-1.5347,-1.5346,-1.5356,-1.5355,-1.5367,-1.537,-1.537,-1.537,-1.537,0,-1.4775,-1.4806,-1.4865,-1.489,-1.4926,-1.4968,-1.5002,-1.5033,-1.5073,-1.5105,-1.5137,-1.5166,-1.5214,-1.5249,-1.5279,-1.5319,-1.533,-1.5348,-1.5355,-1.5345,-1.5342,-1.536,-1.536,-1.5371,-1.5371,-1.5371,-1.5371,0,-1.4762,-1.4803,-1.485,-1.4909,-1.4924,-1.4948,-1.4999,-1.5024,-1.5056,-1.5096,-1.5107,-1.5158,-1.5201,-1.5242,-1.5299,-1.5319,-1.5359,-1.5369,-1.5344,-1.5348,-1.5357,-1.5356,-1.538,-1.5386,-1.5385,-1.5385,-1.5385,0,-1.4767,-1.4792,-1.4853,-1.4877,-1.4905,-1.4942,-1.497,-1.5012,-1.5039,-1.5094,-1.5113,-1.5158,-1.5197,-1.5264,-1.5305,-1.5349,-1.5361,-1.5366,-1.5367,-1.5356,-1.5361,-1.5359,-1.5362,-1.5365,-1.5365,-1.5365,-1.5365,0,-1.4771,-1.4791,-1.4829,-1.4875,-1.4907,-1.4945,-1.4984,-1.5001,-1.5051,-1.508,-1.5125,-1.5155,-1.5214,-1.5258,-1.5307,-1.5337,-1.5359,-1.5364,-1.5369,-1.5359,-1.5343,-1.5352,-1.5341,-1.5363,-1.5363,-1.5364,-1.5364,-1.5364,-1.4768,-1.4791,-1.4839,-1.4881,-1.4915,-1.4951,-1.4978,-1.5013,-1.5051,-1.5102,-1.5125,-1.517,-1.5216,-1.5284,-1.5313,-1.5349,-1.5355,-1.5362,-1.5364,-1.5365,-1.5363,-1.5337,-1.5358,-1.5358,-1.5358,-1.5359,-1.5359,0,-1.4774,-1.4806,-1.4844,-1.4898,-1.4931,-1.495,-1.4994,-1.5021,-1.506,-1.5101,-1.5138,-1.5189,-1.5233,-1.5278,-1.5325,-1.5345,-1.5356,-1.5355,-1.5354,-1.5361,-1.5355,-1.5346,-1.5345,-1.5345,-1.5345,-1.5345,-1.5345,-1.5345,-1.4781,-1.4822,-1.4847,-1.4905,-1.4938,-1.4982,-1.5006,-1.5039,-1.5072,-1.5128,-1.5165,-1.5194,-1.5237,-1.5287,-1.5328,-1.534,-1.5355,-1.5352,-1.5367,-1.536,-1.5361,-1.5362,-1.5354,-1.5355,-1.5355,-1.537,-1.537,-1.537]}]]